Wetbulb
48.09 47.78 47.46 47.24 46.67 46.57 46.54 46.21 45.36 44.99 45.14 45.52 45.60 45.63 45.70 45.53 45.25 45.10 45.14 45.08 44.95 44.83 44.98 45.19 45.29 45.55 45.94 46.36 46.29 46.26 46.22 46.07 45.98 45.17 44.59 44.61 44.86 45.06 45.29 45.28 45.38 45.32 45.33 45.21 45.16 45.16 44.97 44.90 44.67 44.42 44.24 44.12 44.23 44.34 44.64 44.86 45.08 44.97 45.01 45.02 45.12 45.20 45.28 45.24 44.92 44.83 44.88 44.85 44.67
47.33 47.24 46.75 45.48 45.02 45.62 46.19 45.95 45.65 45.49 45.54 46.24 46.12 45.90 45.62 45.25 44.95 44.79 44.75 44.84 44.84 44.97 45.00 45.14 45.28 45.49 45.76 45.87 46.00 46.07 46.07 45.88 45.47 44.95 44.47 44.44 44.53 44.67 44.67 44.61 44.78 44.74 44.77 44.70 44.63 44.27 44.09 44.16 43.85 43.54 43.27 43.30 43.27 43.34 43.57 44.12 44.45 44.28 43.93 43.91 43.99 44.25 44.52 44.57 44.71 44.90 45.05 44.86 44.76
47.16 46.93 46.56 45.89 45.73 45.82 45.95 45.86 45.72 45.70 45.67 45.88 46.02 45.83 45.47 45.09 44.83 44.58 44.58 44.83 45.02 45.06 45.06 44.97 45.85 45.96 45.84 45.98 46.14 46.14 45.96 45.51 45.02 44.57 44.23 44.10 44.16 44.20 44.16 44.12 44.35 44.21 44.06 44.13 44.13 43.86 43.70 43.78 43.32 42.76 42.48 42.58 42.46 42.39 42.36 42.98 43.03 42.94 42.69 42.84 42.81 42.98 43.16 43.22 43.88 44.34 44.48 44.35 44.71
47.34 46.93 46.35 45.82 45.75 45.60 45.42 45.14 45.07 44.96 45.03 45.27 45.41 45.41 45.16 44.99 44.76 44.79 44.85 45.13 45.18 45.20 45.16 45.25 46.88 47.22 47.02 46.46 46.23 45.93 45.38 44.43 44.21 44.07 43.92 43.78 43.84 43.96 43.94 44.30 43.83 43.95 43.99 44.21 44.19 44.04 43.99 43.89 43.41 42.91 42.64 42.71 42.63 42.24 42.22 42.35 42.48 42.28 42.13 42.33 42.25 42.25 42.18 42.28 42.78 43.14 43.38 43.60 43.98
47.33 46.94 46.45 45.89 45.48 45.41 45.32 45.16 44.86 44.69 44.85 44.99 44.75 44.49 44.51 44.77 44.83 44.90 44.93 45.04 44.92 44.90 45.20 45.57 46.40 47.14 47.22 46.18 45.56 45.05 44.63 44.12 42.86 43.09 43.63 43.48 43.64 43.76 43.83 43.85 43.64 43.73 43.92 44.22 44.52 44.38 44.16 44.01 43.33 43.12 43.07 43.07 42.77 42.59 42.61 42.86 42.69 42.33 42.15 42.24 42.14 41.98 41.88 41.85 42.05 42.24 42.35 42.44 42.87
46.89 46.78 46.80 46.41 45.63 45.26 45.21 45.19 45.07 44.90 44.87 44.87 44.25 43.98 43.88 44.08 44.14 44.13 43.99 43.97 44.26 44.60 44.68 44.61 44.84 45.02 45.18 45.01 44.55 44.14 43.92 43.98 43.48 43.46 43.61 43.62 43.70 43.61 43.62 43.46 43.65 43.91 43.98 43.99 44.24 44.49 44.53 44.34 43.30 43.02 43.05 43.03 43.10 43.19 43.41 43.56 42.95 42.60 42.38 42.21 42.32 42.28 42.19 41.97 41.90 41.97 42.01 41.86 42.00
46.26 46.35 46.33 46.11 45.48 44.90 44.70 44.70 44.77 44.70 44.53 44.36 43.82 43.48 43.34 43.63 43.70 43.63 43.67 43.86 43.93 44.02 44.01 43.53 43.87 43.99 43.99 43.94 43.57 43.34 43.30 43.24 43.41 43.32 43.32 43.12 43.05 43.14 43.17 43.11 43.48 43.54 43.49 43.55 43.81 43.93 44.04 44.09 43.07 42.46 42.15 41.93 42.32 42.84 43.27 43.46 43.02 42.66 42.32 42.08 42.41 42.52 42.51 42.44 42.37 42.24 42.07 42.02 41.82
45.47 44.96 44.50 44.35 44.44 44.17 43.99 43.99 43.84 43.73 43.50 43.35 43.07 42.95 42.95 43.10 43.16 43.18 43.27 43.34 43.34 43.48 43.53 43.46 43.74 43.65 43.48 43.28 43.12 42.96 42.91 42.67 42.62 42.69 42.84 42.55 42.60 42.66 42.77 42.84 42.91 42.96 43.19 43.40 43.34 43.27 43.26 43.15 42.64 42.28 42.27 42.25 42.15 42.46 42.97 43.57 43.26 42.98 42.68 42.42 42.51 42.62 42.75 42.70 42.76 42.55 42.24 42.07 41.96
44.42 44.29 44.15 44.08 43.99 43.93 43.68 43.50 43.29 43.15 42.79 42.65 42.49 42.44 42.58 42.58 42.79 42.87 42.81 42.74 42.74 42.94 43.30 43.43 43.49 43.41 43.22 42.94 42.91 42.85 42.69 42.62 42.53 42.37 42.32 42.48 42.37 42.43 42.52 42.66 42.77 42.85 42.87 43.09 43.06 42.98 42.88 42.46 42.06 42.08 42.09 42.02 41.94 42.16 42.61 43.10 42.83 42.67 42.52 42.23 42.27 42.47 42.62 42.73 42.80 42.62 42.30 42.11 41.90
43.65 43.78 43.71 43.68 43.80 43.60 43.34 43.22 43.07 42.75 42.32 41.97 42.06 42.10 41.89 41.29 41.99 42.44 42.74 42.64 42.72 42.93 43.08 42.98 43.17 43.04 42.87 42.74 42.69 42.62 42.58 42.52 42.45 42.43 42.47 42.39 42.39 42.39 42.47 42.48 42.55 42.53 42.58 42.72 42.73 42.74 42.46 42.02 41.63 41.65 41.76 41.74 41.69 41.96 42.28 42.49 42.19 42.06 41.79 41.65 41.80 42.11 42.40 42.48 42.62 42.52 42.24 41.91 41.81
43.44 43.51 43.44 43.30 43.36 43.12 42.86 42.74 42.39 42.12 41.84 41.54 41.65 41.76 41.76 41.44 42.09 42.36 42.64 42.76 42.70 42.66 42.64 42.77 42.86 42.77 42.53 42.55 42.55 42.47 42.52 42.62 42.64 42.55 42.37 42.30 42.22 42.21 42.36 42.22 42.15 42.12 41.93 42.02 42.18 42.00 41.78 41.29 41.18 41.27 41.28 41.26 41.41 41.47 41.64 41.77 41.49 41.43 41.32 41.31 41.54 41.59 41.70 41.85 42.10 42.00 42.00 41.78 41.85
43.20 43.22 43.12 42.98 42.98 42.70 42.39 42.03 41.70 41.49 41.24 41.22 41.35 41.48 41.81 42.07 42.44 42.39 42.26 42.43 42.06 42.00 42.16 42.53 42.67 42.58 42.36 42.33 42.48 42.38 42.23 42.61 42.44 42.31 42.11 41.97 41.95 41.86 41.79 41.67 41.51 41.34 41.23 41.23 41.38 41.16 40.89 40.57 40.51 40.37 40.43 40.61 40.69 40.73 40.82 41.02 40.83 40.64 40.53 40.69 40.85 40.81 40.89 41.13 41.50 41.56 41.71 41.82 41.69
43.00 42.80 42.75 42.58 42.51 42.24 41.99 41.41 41.21 41.00 41.01 40.98 41.25 41.47 41.73 41.88 42.08 41.95 41.87 41.80 41.54 41.54 41.73 42.06 42.20 42.31 42.10 41.99 42.07 42.17 42.17 42.10 42.00 41.68 41.50 41.33 41.35 41.20 41.04 40.87 40.73 40.60 40.57 40.69 40.87 40.62 40.19 39.95 39.90 39.69 39.53 39.77 39.90 40.07 40.28 40.35 40.04 39.94 39.80 39.99 39.99 39.99 40.15 40.38 40.73 40.95 41.21 41.36 41.17
42.74 42.52 42.37 42.14 41.85 41.61 41.19 40.91 40.82 40.85 40.99 41.05 41.40 41.67 41.69 41.77 41.64 41.52 41.45 41.44 41.36 41.47 41.64 41.85 41.85 41.86 41.76 41.88 41.92 41.85 41.68 41.61 41.49 41.22 41.00 40.73 40.76 40.53 40.46 40.28 40.28 40.19 40.18 40.26 40.52 40.41 39.99 39.64 39.46 39.35 39.13 39.02 39.35 39.57 39.82 39.83 39.62 39.51 39.33 39.37 39.34 39.41 39.49 39.88 40.18 40.41 40.57 40.46 40.39
42.22 42.08 41.88 41.69 41.36 41.12 40.87 40.81 40.82 40.95 41.18 41.28 41.56 41.63 41.70 41.58 41.38 41.25 41.35 41.58 41.51 41.72 41.79 41.80 41.70 41.75 41.98 42.30 42.03 41.88 41.73 41.48 41.20 40.93 40.66 40.29 40.29 40.15 40.09 39.88 39.85 39.81 39.84 39.84 39.96 39.95 39.84 39.54 39.33 39.19 39.07 38.85 38.90 39.19 39.30 39.38 39.38 39.20 39.17 38.98 39.03 39.03 39.18 39.33 39.68 39.80 39.84 39.85 39.77
41.93 41.75 41.59 41.34 41.12 41.07 41.05 41.04 41.16 41.31 41.40 41.48 41.67 41.62 41.56 41.49 41.54 41.55 41.48 41.52 41.65 41.74 41.82 41.73 41.76 41.84 42.02 41.95 42.03 41.89 41.58 41.23 40.88 40.51 40.18 39.95 39.84 39.75 39.68 39.54 39.47 39.47 39.47 39.45 39.46 39.62 39.69 39.75 39.66 39.45 39.24 38.95 38.91 38.91 38.96 39.05 39.06 39.08 39.13 38.98 39.02 38.98 39.06 39.06 39.21 39.26 39.34 39.30 39.07
41.76 41.57 41.37 41.32 41.19 41.06 41.19 41.21 41.38 41.52 41.47 41.47 41.47 41.52 41.52 41.44 41.61 41.45 41.06 41.16 41.48 41.58 41.59 41.63 41.69 41.79 41.67 41.45 41.61 41.45 41.17 40.80 40.48 40.16 39.77 39.64 39.48 39.43 39.27 39.20 39.29 39.29 39.29 39.23 39.08 39.07 39.22 39.51 39.57 39.62 39.50 39.25 39.08 38.98 38.97 38.95 38.95 38.97 39.02 39.06 39.06 39.03 38.95 38.68 38.68 38.57 38.53 38.41 38.19
41.39 41.23 41.18 41.12 40.99 40.99 41.05 41.25 41.31 41.44 41.51 41.44 41.31 41.36 41.39 41.41 41.44 41.29 41.25 41.28 41.74 41.72 41.67 41.65 41.84 41.69 41.54 41.37 41.31 40.92 40.60 40.31 40.02 39.77 39.55 39.40 39.36 39.20 39.13 39.13 39.22 39.22 39.22 39.06 38.91 38.94 38.91 39.07 39.30 39.43 39.47 39.33 39.28 39.13 39.01 38.86 38.75 38.57 38.53 38.46 38.46 38.42 38.34 38.11 37.84 37.80 37.72 37.52 37.49
40.86 40.86 40.87 40.87 40.93 41.00 41.06 41.12 41.18 41.31 41.31 41.23 41.10 41.06 41.08 41.27 41.21 41.42 41.48 41.65 41.74 41.73 41.74 41.53 41.44 41.38 41.13 40.94 40.91 40.31 39.99 40.00 39.72 39.66 39.52 39.46 39.42 39.26 39.19 39.12 39.12 39.21 39.18 39.05 38.96 38.87 38.93 39.04 39.15 39.29 39.22 39.07 38.91 38.72 38.57 38.34 37.95 37.72 37.60 37.44 37.51 37.51 37.51 37.44 37.37 37.30 37.30 37.14 37.03
40.34 40.47 40.55 40.67 40.76 40.93 40.99 41.03 41.08 41.15 41.08 40.99 40.85 40.84 40.96 41.07 41.29 41.29 41.20 41.44 41.69 41.88 41.87 41.35 40.99 40.80 40.65 40.49 40.37 40.08 39.85 39.79 39.75 39.63 39.46 39.41 39.30 39.21 39.14 39.14 39.08 39.05 39.06 38.96 38.83 38.88 38.88 38.96 39.03 39.03 38.88 38.45 38.21 37.94 37.73 37.49 37.13 36.81 36.60 36.52 36.45 36.39 36.44 36.42 36.55 36.63 36.75 36.68 36.76
40.23 40.38 40.40 40.55 40.60 40.70 40.82 40.98 41.08 41.02 40.88 40.79 40.67 40.69 40.73 40.94 41.06 41.23 41.23 41.48 41.75 41.79 41.44 41.07 40.68 40.32 40.17 39.99 39.93 39.83 39.80 39.52 39.69 39.62 39.43 39.27 39.19 39.11 39.11 39.05 38.98 38.98 38.75 38.79 38.80 38.80 38.87 38.80 38.76 38.52 38.20 37.74 37.21 36.76 36.28 35.81 35.47 35.27 35.03 34.99 35.11 35.19 35.21 35.42 35.51 35.64 35.73 35.78 35.98
40.14 40.18 40.27 40.34 40.49 40.58 40.79 40.94 40.94 40.81 40.60 40.47 40.39 40.46 40.59 40.71 40.81 41.18 41.46 41.74 41.63 41.33 40.95 40.61 40.32 40.07 39.98 39.75 39.58 39.67 39.60 39.45 39.61 39.57 39.42 39.26 39.11 39.03 39.11 39.07 38.92 38.76 38.64 38.64 38.72 38.64 38.52 38.44 38.19 37.85 37.27 36.45 35.89 35.27 34.66 34.07 33.69 33.52 33.44 33.49 33.64 33.87 34.15 34.31 34.45 34.50 34.49 34.56 34.76
39.92 40.04 40.23 40.30 40.55 40.37 40.32 40.62 40.52 40.48 40.33 40.19 40.29 40.38 40.38 40.50 40.79 41.17 41.42 41.50 41.09 40.79 40.60 40.38 40.17 40.11 39.94 39.87 39.76 39.57 39.42 39.34 39.30 39.30 39.34 39.26 39.14 39.10 39.03 39.03 38.83 38.63 38.55 38.40 38.48 38.36 38.03 37.69 37.32 36.86 36.25 35.24 34.47 33.85 33.36 33.07 32.71 32.47 32.40 32.53 32.65 32.86 33.18 33.39 33.60 33.75 33.83 34.05 34.17
39.89 40.09 40.32 40.50 40.60 40.52 40.39 40.42 40.21 40.06 39.95 39.98 40.04 40.23 40.23 40.46 40.69 40.90 41.07 41.02 40.70 40.58 40.41 40.27 40.23 40.07 39.96 39.97 39.77 39.57 39.29 39.01 38.84 38.88 39.01 39.01 38.97 38.98 38.90 38.90 38.66 38.55 38.44 38.31 38.10 37.72 37.16 36.45 36.11 35.60 35.00 34.13 33.43 32.88 32.55 32.35 32.01 31.84 31.68 31.68 31.81 32.04 32.47 32.78 32.99 33.10 33.25 33.71 33.68
40.04 40.14 40.25 40.48 40.42 40.42 40.21 39.99 39.81 39.70 39.70 39.84 40.02 40.18 40.18 40.25 40.38 40.38 40.46 40.40 40.32 40.26 40.16 40.12 40.08 40.05 39.81 39.61 39.65 39.49 39.21 38.96 38.68 38.47 38.47 38.68 38.72 38.69 38.66 38.39 38.36 38.32 38.04 37.47 37.00 36.54 35.89 34.94 34.87 34.35 33.73 33.18 32.62 32.24 31.98 31.76 31.67 31.46 31.36 31.27 31.27 31.34 31.58 31.93 32.24 32.53 32.78 32.99 33.07
40.12 40.26 40.29 40.36 40.29 40.09 39.81 39.63 39.54 39.61 39.68 39.82 39.89 39.89 39.89 39.89 39.90 39.90 39.77 39.68 39.76 39.88 39.89 39.85 39.76 39.66 39.34 39.29 39.34 39.37 39.21 38.88 38.60 38.44 38.23 38.15 38.25 38.28 38.11 37.92 37.95 37.87 37.56 36.95 36.14 35.56 35.06 34.64 34.11 33.32 32.74 32.63 32.13 31.60 31.26 31.27 31.42 31.42 31.34 31.43 31.10 31.10 31.20 31.21 31.32 31.72 32.14 32.37 32.70
40.15 40.23 40.32 40.32 39.98 39.77 39.50 39.54 39.61 39.63 39.63 39.70 39.61 39.56 39.63 39.63 39.55 39.40 39.30 39.08 39.26 39.38 39.49 39.45 39.65 39.28 38.91 39.22 39.34 39.24 39.17 38.74 38.71 38.47 38.28 37.93 37.93 37.82 37.64 37.53 37.56 37.39 36.98 36.53 35.77 35.12 34.73 34.40 33.94 33.33 32.75 32.41 31.86 31.46 31.14 30.97 31.22 31.39 31.52 31.47 31.22 31.19 31.10 31.19 31.08 31.19 31.42 31.89 32.43
40.02 40.16 40.09 39.95 39.54 39.33 39.35 39.55 39.48 39.41 39.41 39.41 39.39 39.39 39.43 39.39 39.22 38.98 38.90 38.71 38.84 38.88 38.95 38.86 39.13 39.04 38.82 38.71 38.84 38.88 38.79 38.61 38.36 38.05 37.86 37.82 37.47 37.31 37.34 37.26 37.29 37.14 36.76 36.21 35.49 34.92 34.60 34.24 33.77 33.35 32.76 31.96 31.90 31.67 31.33 31.08 31.16 31.22 31.29 31.29 31.21 31.28 31.28 31.28 31.33 31.34 31.33 31.56 31.99
40.06 39.96 39.84 39.56 39.28 39.18 39.26 39.34 39.18 39.25 39.28 39.42 39.41 39.39 39.32 39.11 38.86 38.72 38.65 38.45 38.41 38.37 38.26 38.26 38.38 38.34 38.23 37.85 37.91 38.09 38.15 37.99 38.04 37.88 37.69 37.53 37.31 37.28 37.37 37.36 37.13 36.58 36.08 35.50 35.06 34.61 34.27 33.83 33.42 33.10 32.68 32.35 31.93 31.61 31.42 30.97 30.91 30.90 31.07 31.05 31.13 31.21 31.30 31.26 31.27 31.29 31.36 31.42 31.72
39.95 39.82 39.55 39.19 39.02 38.96 39.00 39.10 39.16 39.23 39.30 39.37 39.33 39.23 38.91 38.72 38.57 38.30 38.14 38.10 37.96 37.92 38.00 38.07 37.84 37.59 37.40 37.39 37.38 37.31 37.20 37.10 37.37 37.46 37.50 37.64 37.29 37.24 37.07 36.86 36.84 36.52 35.86 34.87 34.48 34.09 33.72 33.32 32.96 32.59 32.32 32.18 31.85 31.45 31.31 30.97 30.87 30.80 30.87 30.97 31.24 31.54 31.77 31.87 31.87 31.69 31.60 31.67 31.92
39.87 39.66 39.30 38.97 38.89 38.86 38.93 39.10 39.17 39.33 39.35 39.17 39.01 38.68 38.49 38.18 38.02 37.95 37.88 37.74 37.77 37.62 37.54 37.72 37.47 37.21 37.10 36.99 36.81 36.69 36.55 36.55 36.81 37.03 37.23 37.20 36.72 36.62 36.61 36.75 36.48 35.93 35.22 34.29 33.87 33.47 33.13 32.88 32.64 32.39 32.17 32.01 31.51 31.34 31.26 31.07 30.97 30.96 31.08 31.32 31.39 31.49 31.56 31.52 31.56 31.52 31.60 31.70 31.75
39.81 39.52 39.16 38.83 38.78 38.86 38.96 39.18 39.23 39.20 39.09 38.83 38.57 38.26 38.02 37.67 37.69 37.74 37.74 37.66 37.47 37.36 37.25 37.13 36.88 36.73 36.59 36.45 36.27 36.16 36.13 36.26 36.43 36.55 36.69 36.68 36.58 36.39 36.21 35.91 35.67 34.87 34.03 33.55 33.15 32.83 32.64 32.43 32.31 32.19 32.08 31.89 31.34 31.39 31.62 31.46 31.33 31.33 31.51 31.74 31.66 31.71 31.65 31.54 31.61 31.69 31.77 31.84 31.84
39.80 39.50 39.12 38.83 38.68 38.80 39.03 39.10 39.03 38.99 38.80 38.49 38.10 37.83 37.59 37.41 37.47 37.55 37.62 37.40 37.25 36.99 36.84 36.55 36.22 35.97 35.72 35.67 35.63 35.60 35.83 36.06 36.37 36.30 36.21 36.21 36.13 35.66 35.06 34.70 34.71 34.14 33.31 32.88 32.58 32.34 32.24 32.17 32.10 32.03 31.94 31.72 31.55 31.69 31.90 31.90 31.69 31.64 31.79 31.84 31.81 31.97 32.01 31.97 31.97 32.04 32.22 32.27 32.29
39.88 39.49 39.07 38.84 38.72 38.80 38.91 39.03 38.91 38.71 38.39 37.92 37.65 37.42 37.31 37.10 37.03 36.88 36.85 36.87 36.84 36.77 36.55 36.26 36.00 35.75 35.57 35.53 35.43 35.43 35.63 35.92 36.30 36.50 36.47 36.24 35.67 34.90 34.22 33.71 33.61 33.27 32.87 32.38 32.26 32.16 32.14 32.15 32.17 32.10 31.94 31.77 31.77 32.00 32.19 32.21 31.95 31.95 32.09 32.03 32.19 32.25 32.39 32.51 32.64 32.80 32.88 33.02 32.95
39.60 39.18 38.88 38.80 38.72 38.71 38.67 38.59 38.47 38.15 37.71 37.39 37.18 37.15 37.02 36.86 36.65 36.49 36.36 36.22 36.15 36.19 36.21 36.03 35.92 35.74 35.60 35.68 35.68 35.74 35.78 36.12 36.40 36.48 36.20 35.88 35.04 33.99 33.04 32.47 32.63 32.66 32.45 32.24 32.17 32.22 32.17 32.24 32.20 32.25 32.04 31.71 31.93 32.17 32.41 32.31 32.04 32.18 32.35 32.18 32.35 32.64 32.90 33.16 33.38 33.53 33.73 33.76 33.68
39.23 39.03 38.79 38.70 38.56 38.40 38.25 38.02 37.77 37.42 37.15 37.02 36.85 36.72 36.57 36.39 36.39 36.33 36.19 35.83 35.61 35.61 35.50 35.39 35.32 35.18 35.15 35.26 35.46 35.51 35.58 36.02 35.98 35.93 35.87 35.51 34.28 33.17 32.32 31.84 32.06 32.15 32.19 32.13 32.17 32.25 32.24 32.34 32.33 32.26 32.14 32.05 32.10 32.32 32.33 32.21 32.14 32.30 32.50 32.34 32.44 32.91 33.27 33.52 33.86 34.09 34.39 34.34 34.36
39.08 38.95 38.71 38.48 38.11 37.88 37.83 37.63 37.23 36.79 36.59 36.60 36.42 36.20 36.16 36.05 36.11 36.19 36.07 35.58 35.29 35.05 34.73 34.73 34.59 34.59 34.62 34.94 35.12 35.38 35.56 35.62 35.44 35.21 34.99 34.58 33.61 32.51 31.77 31.38 31.76 31.84 31.97 32.08 32.22 32.27 32.37 32.44 32.37 32.30 32.31 32.04 32.22 32.29 32.21 32.21 32.14 32.23 32.37 32.44 32.66 33.06 33.60 33.92 34.37 34.65 34.75 34.75 34.70
38.79 38.60 38.34 38.00 37.70 37.58 37.34 37.16 36.75 36.39 36.08 36.00 35.96 35.93 35.84 35.79 35.72 35.72 35.50 34.84 34.70 34.39 34.04 34.11 34.14 34.31 34.63 35.09 35.19 35.46 35.64 35.53 35.07 34.67 34.28 33.68 33.08 32.27 31.49 31.10 31.53 31.81 32.04 32.16 32.24 32.37 32.44 32.62 32.69 32.71 32.48 32.11 32.23 32.14 32.05 31.98 31.98 32.12 32.28 32.43 32.94 33.64 34.22 34.77 34.98 35.18 35.29 35.22 35.00
38.28 38.08 37.91 37.62 37.47 37.20 36.92 36.68 36.31 36.03 35.86 35.75 35.65 35.60 35.54 35.47 35.33 35.29 35.08 34.70 34.49 34.25 33.94 33.87 34.06 34.46 34.80 34.90 34.81 34.93 34.99 35.03 34.69 34.24 33.67 33.17 32.72 32.02 31.34 30.87 31.39 31.88 32.16 32.31 32.35 32.61 32.76 32.96 33.11 33.06 32.91 32.41 32.48 32.43 32.20 32.20 32.17 32.29 32.53 32.93 33.48 33.98 34.45 34.84 35.05 35.35 35.71 35.81 35.84
38.08 37.94 37.88 37.62 37.36 37.02 36.53 36.09 36.00 35.96 35.81 35.57 35.37 35.21 35.18 35.08 34.80 34.87 34.87 34.63 34.59 34.42 34.18 34.03 34.26 34.63 34.73 34.39 34.36 34.12 33.89 33.91 34.07 33.81 33.27 32.67 32.38 31.87 31.45 31.02 31.44 31.89 32.24 32.51 32.83 33.01 33.28 33.44 33.52 33.47 33.28 32.74 32.91 32.86 32.67 32.69 32.59 32.65 32.76 32.96 32.95 33.00 33.13 33.50 33.86 34.32 34.87 35.39 35.57
38.05 38.06 37.88 37.51 37.18 36.73 36.26 35.82 35.75 35.78 35.70 35.49 35.17 35.00 34.77 34.59 34.49 34.63 34.59 34.49 34.46 34.35 34.31 34.19 34.46 34.58 34.53 34.02 33.89 33.42 32.79 32.42 32.78 32.82 32.71 32.18 31.95 31.82 31.64 31.54 31.75 32.22 32.63 33.23 33.38 33.50 33.59 33.77 33.77 33.72 33.44 32.82 33.14 33.25 33.22 33.04 32.57 32.13 31.91 31.67 31.65 31.55 31.48 31.83 32.33 32.81 33.42 34.17 34.68
MSLP
1014.96 1015.16 1015.36 1015.48 1015.64 1015.72 1015.84 1015.96 1016.12 1016.24 1016.28 1016.28 1016.20 1016.20 1016.20 1016.20 1016.28 1016.40 1016.48 1016.56 1016.56 1016.56 1016.56 1016.52 1016.48 1016.44 1016.44 1016.40 1016.40 1016.36 1016.36 1016.40 1016.44 1016.44 1016.44 1016.44 1016.32 1016.28 1016.20 1016.16 1016.04 1016.00 1015.92 1015.88 1015.80 1015.72 1015.64 1015.56 1015.52 1015.40 1015.28 1015.20 1015.12 1015.00 1014.96 1014.88 1014.84 1014.72 1014.64 1014.56 1014.44 1014.36 1014.28 1014.16 1014.00 1013.96 1013.88 1013.76 1013.72
1015.04 1015.28 1015.56 1015.72 1015.88 1015.88 1015.96 1016.00 1016.16 1016.24 1016.28 1016.24 1016.20 1016.24 1016.28 1016.40 1016.44 1016.52 1016.60 1016.64 1016.60 1016.60 1016.60 1016.52 1016.48 1016.44 1016.44 1016.40 1016.40 1016.40 1016.44 1016.44 1016.48 1016.48 1016.44 1016.40 1016.28 1016.24 1016.16 1016.08 1016.00 1015.96 1015.88 1015.84 1015.76 1015.72 1015.60 1015.52 1015.44 1015.36 1015.24 1015.16 1015.04 1014.92 1014.84 1014.80 1014.76 1014.68 1014.52 1014.40 1014.32 1014.24 1014.16 1014.00 1013.88 1013.80 1013.72 1013.64 1013.56
1015.20 1015.44 1015.68 1015.80 1015.88 1015.92 1015.92 1015.96 1016.00 1016.00 1016.04 1016.12 1016.24 1016.32 1016.44 1016.48 1016.60 1016.64 1016.68 1016.64 1016.64 1016.64 1016.64 1016.56 1016.56 1016.52 1016.48 1016.48 1016.48 1016.52 1016.56 1016.56 1016.56 1016.48 1016.44 1016.32 1016.24 1016.16 1016.08 1016.00 1015.92 1015.88 1015.84 1015.80 1015.72 1015.68 1015.60 1015.52 1015.44 1015.32 1015.20 1015.08 1015.00 1014.88 1014.76 1014.72 1014.68 1014.56 1014.40 1014.28 1014.20 1014.12 1013.96 1013.80 1013.72 1013.64 1013.56 1013.48 1013.40
1015.32 1015.52 1015.68 1015.76 1015.76 1015.80 1015.88 1015.96 1016.00 1016.08 1016.16 1016.28 1016.36 1016.44 1016.56 1016.60 1016.68 1016.72 1016.68 1016.64 1016.64 1016.64 1016.60 1016.52 1016.56 1016.56 1016.56 1016.60 1016.60 1016.56 1016.60 1016.56 1016.48 1016.44 1016.32 1016.24 1016.16 1016.08 1016.00 1015.92 1015.88 1015.80 1015.72 1015.72 1015.72 1015.64 1015.56 1015.52 1015.44 1015.32 1015.16 1015.00 1014.88 1014.76 1014.64 1014.60 1014.52 1014.44 1014.28 1014.16 1014.08 1013.96 1013.80 1013.68 1013.56 1013.48 1013.44 1013.28 1013.20
1015.36 1015.52 1015.60 1015.72 1015.80 1015.92 1016.00 1016.12 1016.16 1016.28 1016.32 1016.44 1016.56 1016.60 1016.60 1016.64 1016.68 1016.60 1016.60 1016.60 1016.56 1016.48 1016.44 1016.44 1016.48 1016.52 1016.56 1016.56 1016.52 1016.48 1016.44 1016.44 1016.40 1016.32 1016.20 1016.12 1016.04 1016.00 1016.00 1015.88 1015.84 1015.76 1015.72 1015.68 1015.68 1015.60 1015.56 1015.44 1015.40 1015.24 1015.08 1014.96 1014.84 1014.72 1014.60 1014.48 1014.40 1014.28 1014.16 1014.00 1013.92 1013.84 1013.72 1013.52 1013.44 1013.36 1013.24 1013.12 1013.00
1015.36 1015.52 1015.72 1015.84 1015.96 1016.04 1016.12 1016.16 1016.28 1016.32 1016.44 1016.52 1016.56 1016.60 1016.60 1016.56 1016.56 1016.52 1016.48 1016.44 1016.44 1016.40 1016.40 1016.44 1016.48 1016.52 1016.48 1016.44 1016.44 1016.36 1016.32 1016.28 1016.28 1016.20 1016.16 1016.08 1016.00 1015.96 1015.92 1015.84 1015.80 1015.72 1015.72 1015.60 1015.56 1015.52 1015.48 1015.44 1015.28 1015.12 1014.96 1014.84 1014.72 1014.60 1014.44 1014.40 1014.28 1014.16 1014.04 1013.92 1013.80 1013.68 1013.56 1013.44 1013.28 1013.20 1013.12 1012.96 1012.88
1015.20 1015.40 1015.60 1015.80 1015.96 1016.04 1016.12 1016.20 1016.28 1016.40 1016.48 1016.52 1016.48 1016.48 1016.48 1016.44 1016.44 1016.44 1016.44 1016.44 1016.44 1016.44 1016.44 1016.44 1016.44 1016.44 1016.44 1016.32 1016.28 1016.24 1016.20 1016.16 1016.16 1016.12 1016.08 1016.00 1015.88 1015.84 1015.80 1015.72 1015.72 1015.64 1015.56 1015.48 1015.44 1015.40 1015.32 1015.28 1015.16 1014.96 1014.80 1014.72 1014.56 1014.44 1014.36 1014.28 1014.20 1014.04 1013.92 1013.76 1013.68 1013.56 1013.44 1013.28 1013.20 1013.12 1012.96 1012.80 1012.72
1015.04 1015.24 1015.40 1015.56 1015.80 1015.96 1016.04 1016.16 1016.28 1016.40 1016.44 1016.44 1016.40 1016.40 1016.40 1016.36 1016.40 1016.40 1016.40 1016.44 1016.40 1016.40 1016.40 1016.40 1016.36 1016.32 1016.28 1016.20 1016.16 1016.16 1016.12 1016.04 1016.00 1016.00 1015.96 1015.88 1015.80 1015.72 1015.68 1015.60 1015.56 1015.48 1015.44 1015.36 1015.28 1015.20 1015.16 1015.08 1014.92 1014.76 1014.64 1014.56 1014.40 1014.20 1014.12 1014.12 1014.00 1013.88 1013.80 1013.68 1013.56 1013.44 1013.36 1013.24 1013.12 1013.00 1012.88 1012.72 1012.64
1015.04 1015.24 1015.44 1015.60 1015.76 1015.88 1016.04 1016.16 1016.28 1016.32 1016.36 1016.36 1016.36 1016.36 1016.36 1016.32 1016.32 1016.32 1016.32 1016.32 1016.28 1016.28 1016.28 1016.28 1016.24 1016.20 1016.16 1016.12 1016.04 1016.00 1016.00 1016.00 1015.92 1015.88 1015.84 1015.76 1015.72 1015.60 1015.56 1015.52 1015.44 1015.36 1015.28 1015.24 1015.16 1015.04 1014.96 1014.88 1014.72 1014.60 1014.44 1014.32 1014.16 1014.04 1013.96 1013.88 1013.84 1013.72 1013.60 1013.52 1013.40 1013.28 1013.20 1013.12 1013.00 1012.88 1012.76 1012.64 1012.52
1015.08 1015.28 1015.44 1015.60 1015.80 1015.92 1016.04 1016.16 1016.20 1016.28 1016.28 1016.28 1016.32 1016.32 1016.28 1016.28 1016.24 1016.20 1016.20 1016.20 1016.20 1016.16 1016.16 1016.08 1016.04 1016.00 1016.00 1015.96 1015.96 1015.92 1015.88 1015.88 1015.80 1015.76 1015.72 1015.64 1015.56 1015.52 1015.44 1015.32 1015.28 1015.16 1015.08 1015.00 1014.96 1014.88 1014.72 1014.64 1014.48 1014.32 1014.20 1014.12 1014.00 1013.88 1013.76 1013.72 1013.60 1013.52 1013.44 1013.36 1013.24 1013.12 1013.00 1012.96 1012.88 1012.76 1012.64 1012.52 1012.40
1015.12 1015.28 1015.44 1015.64 1015.80 1015.92 1016.00 1016.08 1016.16 1016.20 1016.24 1016.24 1016.20 1016.16 1016.16 1016.08 1016.04 1016.00 1016.00 1016.00 1016.00 1016.00 1015.92 1015.88 1015.88 1015.88 1015.84 1015.80 1015.80 1015.76 1015.72 1015.72 1015.68 1015.60 1015.52 1015.44 1015.36 1015.28 1015.16 1015.08 1015.00 1014.88 1014.80 1014.72 1014.68 1014.60 1014.52 1014.44 1014.28 1014.16 1014.04 1013.96 1013.84 1013.72 1013.64 1013.56 1013.44 1013.36 1013.24 1013.16 1013.04 1012.96 1012.84 1012.72 1012.68 1012.60 1012.48 1012.32 1012.28
1015.16 1015.32 1015.48 1015.64 1015.80 1015.92 1016.00 1016.08 1016.12 1016.16 1016.20 1016.16 1016.08 1016.00 1015.92 1015.88 1015.84 1015.84 1015.84 1015.80 1015.80 1015.76 1015.72 1015.72 1015.72 1015.72 1015.68 1015.64 1015.60 1015.56 1015.56 1015.48 1015.44 1015.36 1015.28 1015.16 1015.04 1015.00 1014.88 1014.80 1014.68 1014.60 1014.52 1014.44 1014.44 1014.40 1014.28 1014.16 1014.08 1013.96 1013.84 1013.72 1013.68 1013.60 1013.48 1013.40 1013.28 1013.20 1013.08 1012.96 1012.88 1012.76 1012.64 1012.52 1012.44 1012.40 1012.28 1012.20 1012.12
1015.24 1015.40 1015.52 1015.64 1015.76 1015.88 1015.96 1016.04 1016.12 1016.12 1016.08 1015.96 1015.84 1015.76 1015.72 1015.72 1015.68 1015.68 1015.68 1015.68 1015.68 1015.60 1015.56 1015.56 1015.56 1015.56 1015.52 1015.44 1015.44 1015.36 1015.28 1015.24 1015.16 1015.04 1015.00 1014.88 1014.76 1014.72 1014.64 1014.56 1014.48 1014.40 1014.32 1014.28 1014.28 1014.20 1014.08 1013.96 1013.84 1013.72 1013.56 1013.48 1013.44 1013.40 1013.28 1013.20 1013.12 1013.00 1012.88 1012.76 1012.68 1012.56 1012.44 1012.28 1012.24 1012.16 1012.12 1012.00 1011.88
1015.28 1015.40 1015.52 1015.68 1015.80 1015.88 1015.96 1016.00 1016.00 1015.88 1015.80 1015.68 1015.60 1015.56 1015.56 1015.56 1015.56 1015.60 1015.60 1015.56 1015.56 1015.56 1015.52 1015.48 1015.44 1015.44 1015.36 1015.28 1015.24 1015.16 1015.12 1015.00 1014.96 1014.88 1014.80 1014.72 1014.64 1014.56 1014.44 1014.40 1014.28 1014.20 1014.16 1014.08 1014.04 1014.00 1013.88 1013.76 1013.60 1013.48 1013.32 1013.24 1013.16 1013.08 1013.04 1013.00 1012.88 1012.76 1012.68 1012.60 1012.44 1012.32 1012.24 1012.12 1012.04 1012.00 1011.92 1011.80 1011.72
1015.20 1015.32 1015.52 1015.64 1015.72 1015.76 1015.80 1015.76 1015.68 1015.56 1015.48 1015.44 1015.44 1015.44 1015.44 1015.44 1015.48 1015.52 1015.52 1015.48 1015.44 1015.44 1015.44 1015.40 1015.32 1015.28 1015.28 1015.24 1015.16 1015.12 1015.04 1014.96 1014.88 1014.76 1014.68 1014.60 1014.48 1014.44 1014.28 1014.20 1014.12 1014.00 1013.96 1013.88 1013.76 1013.72 1013.60 1013.48 1013.40 1013.28 1013.16 1013.00 1012.88 1012.80 1012.76 1012.72 1012.60 1012.52 1012.44 1012.28 1012.20 1012.12 1012.00 1011.92 1011.88 1011.84 1011.72 1011.60 1011.48
1015.04 1015.20 1015.32 1015.40 1015.44 1015.48 1015.48 1015.44 1015.36 1015.32 1015.28 1015.28 1015.32 1015.36 1015.44 1015.44 1015.40 1015.44 1015.44 1015.40 1015.36 1015.32 1015.28 1015.28 1015.20 1015.16 1015.16 1015.12 1015.08 1015.04 1014.96 1014.88 1014.76 1014.64 1014.52 1014.40 1014.28 1014.20 1014.12 1014.00 1013.92 1013.84 1013.72 1013.60 1013.52 1013.44 1013.36 1013.28 1013.20 1013.12 1013.00 1012.84 1012.72 1012.64 1012.56 1012.48 1012.40 1012.28 1012.20 1012.12 1012.00 1011.88 1011.80 1011.72 1011.68 1011.56 1011.48 1011.44 1011.28
1014.84 1014.96 1015.00 1015.12 1015.16 1015.16 1015.20 1015.20 1015.16 1015.16 1015.20 1015.24 1015.28 1015.32 1015.36 1015.36 1015.36 1015.32 1015.32 1015.32 1015.28 1015.24 1015.16 1015.16 1015.12 1015.08 1015.00 1015.00 1014.96 1014.92 1014.84 1014.72 1014.60 1014.48 1014.36 1014.24 1014.12 1014.00 1013.92 1013.84 1013.72 1013.64 1013.56 1013.44 1013.32 1013.20 1013.12 1013.04 1013.00 1012.92 1012.84 1012.72 1012.60 1012.48 1012.40 1012.28 1012.16 1012.08 1012.00 1011.88 1011.80 1011.72 1011.60 1011.52 1011.48 1011.40 1011.32 1011.24 1011.16
1014.72 1014.80 1014.88 1014.92 1014.96 1015.00 1015.04 1015.08 1015.04 1015.08 1015.16 1015.20 1015.24 1015.28 1015.28 1015.28 1015.28 1015.28 1015.24 1015.20 1015.16 1015.16 1015.08 1015.04 1015.00 1015.00 1014.92 1014.88 1014.84 1014.80 1014.72 1014.60 1014.48 1014.36 1014.24 1014.12 1014.00 1013.88 1013.80 1013.68 1013.56 1013.48 1013.40 1013.28 1013.16 1013.04 1012.96 1012.88 1012.80 1012.72 1012.68 1012.60 1012.48 1012.36 1012.28 1012.16 1012.04 1011.92 1011.84 1011.76 1011.68 1011.56 1011.52 1011.44 1011.40 1011.36 1011.28 1011.16 1011.04
1014.68 1014.76 1014.80 1014.84 1014.88 1014.92 1014.96 1015.00 1015.00 1015.08 1015.16 1015.16 1015.20 1015.24 1015.24 1015.24 1015.20 1015.16 1015.12 1015.08 1015.04 1015.00 1015.00 1014.92 1014.88 1014.88 1014.84 1014.76 1014.72 1014.64 1014.60 1014.48 1014.36 1014.20 1014.08 1014.00 1013.88 1013.76 1013.64 1013.52 1013.44 1013.32 1013.24 1013.16 1013.04 1012.92 1012.88 1012.76 1012.72 1012.64 1012.56 1012.44 1012.32 1012.24 1012.16 1012.00 1011.96 1011.88 1011.80 1011.72 1011.68 1011.60 1011.56 1011.44 1011.44 1011.36 1011.28 1011.16 1011.00
1014.64 1014.72 1014.76 1014.80 1014.88 1014.88 1014.96 1015.00 1015.00 1015.08 1015.16 1015.16 1015.16 1015.16 1015.16 1015.16 1015.12 1015.04 1015.00 1014.92 1014.88 1014.88 1014.88 1014.84 1014.80 1014.72 1014.68 1014.60 1014.56 1014.48 1014.44 1014.32 1014.20 1014.04 1013.92 1013.84 1013.72 1013.60 1013.52 1013.40 1013.28 1013.20 1013.16 1013.04 1012.96 1012.88 1012.76 1012.64 1012.56 1012.44 1012.36 1012.28 1012.16 1012.12 1012.08 1012.00 1012.00 1011.92 1011.88 1011.84 1011.72 1011.68 1011.56 1011.52 1011.44 1011.36 1011.28 1011.16 1011.00
1014.68 1014.72 1014.76 1014.84 1014.88 1014.92 1015.00 1015.00 1015.08 1015.12 1015.16 1015.16 1015.12 1015.12 1015.08 1015.04 1015.00 1014.92 1014.88 1014.80 1014.76 1014.80 1014.76 1014.72 1014.64 1014.60 1014.52 1014.44 1014.36 1014.28 1014.20 1014.12 1014.00 1013.92 1013.80 1013.72 1013.60 1013.52 1013.44 1013.32 1013.24 1013.16 1013.04 1012.92 1012.84 1012.72 1012.60 1012.48 1012.36 1012.28 1012.24 1012.24 1012.20 1012.16 1012.16 1012.16 1012.08 1012.04 1012.00 1011.96 1011.88 1011.72 1011.64 1011.56 1011.44 1011.36 1011.24 1011.12 1011.00
1014.72 1014.76 1014.84 1014.88 1014.92 1014.96 1015.00 1015.04 1015.08 1015.08 1015.08 1015.04 1015.04 1015.00 1014.96 1014.88 1014.84 1014.76 1014.72 1014.72 1014.68 1014.68 1014.60 1014.56 1014.48 1014.44 1014.36 1014.28 1014.20 1014.16 1014.04 1014.00 1013.88 1013.80 1013.72 1013.56 1013.48 1013.40 1013.28 1013.24 1013.12 1013.00 1012.84 1012.72 1012.60 1012.44 1012.32 1012.28 1012.20 1012.20 1012.24 1012.24 1012.24 1012.28 1012.28 1012.28 1012.20 1012.12 1012.04 1011.92 1011.84 1011.72 1011.64 1011.56 1011.44 1011.32 1011.20 1011.08 1010.96
1014.76 1014.80 1014.88 1014.88 1014.88 1014.96 1015.00 1015.00 1015.00 1015.00 1015.00 1014.96 1014.92 1014.88 1014.84 1014.72 1014.64 1014.60 1014.60 1014.56 1014.60 1014.56 1014.48 1014.44 1014.36 1014.28 1014.24 1014.16 1014.12 1014.00 1013.92 1013.84 1013.72 1013.64 1013.52 1013.44 1013.28 1013.20 1013.12 1013.00 1012.88 1012.72 1012.56 1012.44 1012.28 1012.20 1012.16 1012.12 1012.12 1012.16 1012.20 1012.24 1012.24 1012.28 1012.28 1012.28 1012.20 1012.08 1011.96 1011.80 1011.68 1011.56 1011.48 1011.36 1011.28 1011.16 1011.04 1010.96 1010.84
1014.76 1014.80 1014.84 1014.88 1014.88 1014.88 1014.92 1014.92 1014.92 1014.92 1014.88 1014.84 1014.80 1014.72 1014.64 1014.56 1014.52 1014.48 1014.44 1014.44 1014.44 1014.36 1014.32 1014.32 1014.28 1014.20 1014.12 1014.04 1014.00 1013.88 1013.72 1013.60 1013.48 1013.36 1013.28 1013.16 1013.08 1012.96 1012.84 1012.72 1012.60 1012.44 1012.28 1012.16 1012.04 1012.00 1012.04 1012.08 1012.08 1012.12 1012.16 1012.24 1012.24 1012.24 1012.24 1012.16 1012.12 1012.00 1011.84 1011.64 1011.48 1011.36 1011.28 1011.16 1011.04 1010.96 1010.84 1010.72 1010.60
1014.68 1014.72 1014.72 1014.80 1014.84 1014.84 1014.84 1014.84 1014.80 1014.80 1014.76 1014.72 1014.68 1014.60 1014.48 1014.44 1014.36 1014.36 1014.32 1014.28 1014.28 1014.24 1014.20 1014.16 1014.12 1014.04 1013.96 1013.88 1013.76 1013.68 1013.56 1013.44 1013.24 1013.12 1013.00 1012.88 1012.76 1012.68 1012.60 1012.48 1012.32 1012.16 1012.00 1011.96 1011.88 1011.96 1012.00 1012.08 1012.16 1012.16 1012.16 1012.20 1012.16 1012.16 1012.08 1012.00 1011.92 1011.80 1011.68 1011.48 1011.28 1011.16 1011.00 1010.84 1010.72 1010.68 1010.60 1010.44 1010.36
1014.56 1014.60 1014.64 1014.72 1014.72 1014.72 1014.76 1014.72 1014.72 1014.68 1014.64 1014.60 1014.56 1014.44 1014.36 1014.32 1014.24 1014.20 1014.20 1014.16 1014.16 1014.08 1014.04 1014.00 1013.92 1013.88 1013.76 1013.64 1013.52 1013.40 1013.28 1013.16 1013.00 1012.84 1012.72 1012.60 1012.44 1012.40 1012.32 1012.20 1012.08 1011.96 1011.84 1011.72 1011.72 1011.80 1011.88 1012.00 1012.16 1012.20 1012.20 1012.16 1012.08 1012.00 1011.88 1011.76 1011.68 1011.56 1011.44 1011.28 1011.08 1010.88 1010.72 1010.56 1010.36 1010.28 1010.24 1010.16 1010.04
1014.48 1014.52 1014.56 1014.64 1014.64 1014.68 1014.68 1014.68 1014.64 1014.60 1014.56 1014.48 1014.44 1014.36 1014.28 1014.24 1014.16 1014.12 1014.08 1014.04 1014.00 1013.96 1013.88 1013.84 1013.72 1013.64 1013.56 1013.36 1013.20 1013.04 1012.92 1012.80 1012.68 1012.60 1012.44 1012.32 1012.24 1012.16 1012.04 1011.96 1011.84 1011.68 1011.56 1011.56 1011.56 1011.68 1011.80 1011.88 1011.96 1012.04 1012.08 1012.00 1011.92 1011.80 1011.64 1011.48 1011.36 1011.24 1011.12 1010.92 1010.76 1010.60 1010.44 1010.20 1010.04 1009.92 1009.84 1009.76 1009.68
1014.44 1014.44 1014.52 1014.56 1014.60 1014.60 1014.60 1014.60 1014.56 1014.52 1014.44 1014.36 1014.32 1014.28 1014.20 1014.16 1014.16 1014.12 1014.04 1013.96 1013.88 1013.80 1013.72 1013.56 1013.44 1013.36 1013.20 1013.00 1012.84 1012.72 1012.60 1012.52 1012.44 1012.28 1012.20 1012.12 1012.00 1011.88 1011.80 1011.68 1011.52 1011.40 1011.32 1011.36 1011.44 1011.56 1011.60 1011.72 1011.72 1011.80 1011.84 1011.84 1011.72 1011.60 1011.44 1011.28 1011.12 1010.96 1010.80 1010.60 1010.44 1010.24 1010.08 1009.88 1009.72 1009.60 1009.52 1009.40 1009.32
1014.40 1014.44 1014.44 1014.48 1014.48 1014.52 1014.52 1014.48 1014.44 1014.40 1014.36 1014.28 1014.28 1014.24 1014.20 1014.16 1014.12 1014.04 1013.92 1013.84 1013.72 1013.60 1013.48 1013.28 1013.16 1013.00 1012.88 1012.68 1012.56 1012.44 1012.32 1012.24 1012.16 1012.08 1011.96 1011.84 1011.72 1011.60 1011.48 1011.36 1011.24 1011.16 1011.16 1011.20 1011.28 1011.40 1011.44 1011.52 1011.56 1011.56 1011.60 1011.56 1011.52 1011.40 1011.24 1011.04 1010.88 1010.72 1010.48 1010.28 1010.08 1009.88 1009.72 1009.56 1009.44 1009.28 1009.16 1009.04 1008.96
1014.36 1014.40 1014.40 1014.40 1014.44 1014.44 1014.44 1014.44 1014.40 1014.32 1014.28 1014.24 1014.24 1014.16 1014.16 1014.04 1014.00 1013.88 1013.80 1013.68 1013.56 1013.40 1013.24 1013.08 1012.92 1012.76 1012.64 1012.48 1012.36 1012.24 1012.12 1011.96 1011.88 1011.76 1011.68 1011.56 1011.44 1011.36 1011.28 1011.16 1011.08 1011.00 1011.04 1011.16 1011.24 1011.28 1011.36 1011.40 1011.40 1011.40 1011.36 1011.32 1011.32 1011.20 1011.00 1010.80 1010.64 1010.44 1010.20 1010.00 1009.76 1009.56 1009.40 1009.20 1009.08 1009.00 1008.88 1008.72 1008.60
1014.28 1014.32 1014.36 1014.36 1014.40 1014.40 1014.40 1014.36 1014.36 1014.28 1014.28 1014.20 1014.16 1014.12 1014.00 1013.96 1013.88 1013.76 1013.60 1013.48 1013.32 1013.16 1013.04 1012.92 1012.76 1012.60 1012.44 1012.28 1012.12 1012.00 1011.84 1011.68 1011.56 1011.48 1011.44 1011.36 1011.28 1011.20 1011.08 1011.00 1011.00 1010.96 1011.00 1011.12 1011.20 1011.24 1011.24 1011.28 1011.20 1011.16 1011.12 1011.08 1011.00 1010.92 1010.72 1010.52 1010.32 1010.12 1009.88 1009.64 1009.44 1009.28 1009.12 1009.00 1008.84 1008.72 1008.56 1008.44 1008.28
1014.24 1014.28 1014.28 1014.32 1014.32 1014.32 1014.32 1014.28 1014.28 1014.24 1014.20 1014.16 1014.08 1014.00 1013.92 1013.84 1013.72 1013.56 1013.44 1013.32 1013.16 1013.00 1012.88 1012.72 1012.56 1012.40 1012.20 1012.00 1011.88 1011.72 1011.56 1011.48 1011.40 1011.32 1011.28 1011.28 1011.20 1011.12 1011.00 1010.96 1010.92 1010.92 1011.00 1011.08 1011.16 1011.16 1011.08 1011.04 1011.00 1010.92 1010.88 1010.76 1010.72 1010.56 1010.36 1010.16 1009.96 1009.76 1009.52 1009.28 1009.12 1008.96 1008.84 1008.68 1008.48 1008.28 1008.16 1008.08 1007.96
1014.20 1014.24 1014.24 1014.28 1014.28 1014.28 1014.28 1014.24 1014.20 1014.16 1014.12 1014.04 1014.00 1013.88 1013.80 1013.72 1013.56 1013.44 1013.36 1013.24 1013.04 1012.88 1012.68 1012.48 1012.32 1012.16 1012.00 1011.84 1011.68 1011.52 1011.40 1011.32 1011.28 1011.24 1011.20 1011.16 1011.12 1011.04 1010.96 1010.88 1010.88 1010.88 1010.96 1011.00 1011.00 1011.00 1010.88 1010.80 1010.72 1010.60 1010.52 1010.44 1010.36 1010.20 1010.00 1009.76 1009.56 1009.36 1009.16 1008.92 1008.72 1008.60 1008.44 1008.28 1008.16 1007.96 1007.80 1007.64 1007.52
1014.16 1014.16 1014.16 1014.16 1014.16 1014.16 1014.16 1014.16 1014.12 1014.08 1014.00 1013.92 1013.84 1013.76 1013.72 1013.56 1013.44 1013.28 1013.16 1013.04 1012.88 1012.68 1012.48 1012.28 1012.16 1012.00 1011.84 1011.72 1011.56 1011.40 1011.28 1011.28 1011.20 1011.16 1011.12 1011.08 1011.04 1011.00 1010.96 1010.92 1010.88 1010.88 1010.88 1010.88 1010.84 1010.72 1010.60 1010.52 1010.44 1010.28 1010.16 1010.04 1009.96 1009.80 1009.56 1009.40 1009.16 1008.96 1008.72 1008.52 1008.28 1008.16 1008.00 1007.88 1007.68 1007.48 1007.32 1007.16 1007.04
1014.00 1014.00 1014.04 1014.08 1014.12 1014.12 1014.08 1014.00 1014.00 1013.92 1013.88 1013.80 1013.72 1013.64 1013.56 1013.44 1013.28 1013.16 1012.96 1012.84 1012.64 1012.44 1012.28 1012.12 1012.00 1011.88 1011.72 1011.56 1011.44 1011.28 1011.20 1011.16 1011.16 1011.12 1011.08 1011.04 1011.00 1010.96 1010.92 1010.88 1010.84 1010.76 1010.72 1010.68 1010.60 1010.44 1010.32 1010.20 1010.08 1009.96 1009.84 1009.72 1009.60 1009.44 1009.20 1008.96 1008.72 1008.52 1008.28 1008.04 1007.88 1007.68 1007.52 1007.36 1007.16 1006.96 1006.80 1006.64 1006.52
1013.88 1013.96 1014.00 1014.04 1014.00 1013.96 1013.96 1013.88 1013.84 1013.76 1013.72 1013.68 1013.60 1013.56 1013.44 1013.28 1013.12 1012.92 1012.76 1012.60 1012.44 1012.28 1012.08 1011.96 1011.84 1011.68 1011.52 1011.40 1011.28 1011.20 1011.12 1011.04 1011.04 1011.00 1011.00 1011.00 1011.00 1010.92 1010.84 1010.72 1010.64 1010.56 1010.48 1010.44 1010.28 1010.16 1010.04 1009.92 1009.76 1009.64 1009.52 1009.44 1009.28 1009.04 1008.84 1008.60 1008.36 1008.12 1007.88 1007.64 1007.44 1007.20 1007.04 1006.88 1006.64 1006.44 1006.28 1006.16 1006.00
1013.84 1013.88 1013.92 1013.92 1013.88 1013.80 1013.76 1013.76 1013.72 1013.68 1013.60 1013.56 1013.44 1013.36 1013.20 1013.04 1012.88 1012.72 1012.60 1012.44 1012.28 1012.08 1011.92 1011.80 1011.68 1011.52 1011.40 1011.28 1011.20 1011.08 1011.00 1011.00 1010.96 1010.92 1010.88 1010.88 1010.92 1010.88 1010.76 1010.60 1010.44 1010.28 1010.20 1010.12 1010.00 1009.88 1009.76 1009.60 1009.44 1009.32 1009.20 1009.08 1008.88 1008.68 1008.48 1008.28 1008.00 1007.72 1007.48 1007.24 1007.00 1006.76 1006.60 1006.40 1006.16 1006.00 1005.84 1005.68 1005.56
1013.76 1013.80 1013.80 1013.72 1013.72 1013.68 1013.64 1013.64 1013.60 1013.56 1013.48 1013.36 1013.28 1013.16 1013.00 1012.88 1012.68 1012.52 1012.44 1012.32 1012.16 1012.00 1011.80 1011.64 1011.52 1011.36 1011.24 1011.16 1011.04 1011.00 1010.96 1010.92 1010.92 1010.88 1010.88 1010.84 1010.84 1010.80 1010.72 1010.48 1010.28 1010.12 1009.96 1009.88 1009.76 1009.56 1009.44 1009.28 1009.08 1008.96 1008.88 1008.72 1008.56 1008.32 1008.16 1007.92 1007.64 1007.40 1007.12 1006.88 1006.56 1006.32 1006.12 1005.96 1005.72 1005.56 1005.36 1005.20 1005.12
1013.68 1013.72 1013.68 1013.60 1013.60 1013.60 1013.56 1013.56 1013.48 1013.44 1013.36 1013.24 1013.12 1013.00 1012.84 1012.72 1012.56 1012.44 1012.32 1012.24 1012.12 1011.92 1011.72 1011.52 1011.36 1011.20 1011.12 1011.04 1010.96 1010.88 1010.84 1010.84 1010.88 1010.84 1010.84 1010.80 1010.76 1010.72 1010.60 1010.40 1010.12 1009.88 1009.72 1009.60 1009.44 1009.24 1009.04 1008.88 1008.72 1008.60 1008.48 1008.40 1008.24 1008.04 1007.88 1007.56 1007.28 1007.04 1006.76 1006.52 1006.28 1006.00 1005.80 1005.60 1005.44 1005.24 1005.00 1004.76 1004.64
1013.64 1013.60 1013.60 1013.56 1013.52 1013.52 1013.44 1013.40 1013.32 1013.28 1013.24 1013.12 1013.00 1012.84 1012.72 1012.60 1012.44 1012.32 1012.24 1012.12 1011.96 1011.80 1011.56 1011.40 1011.24 1011.08 1011.00 1010.96 1010.88 1010.76 1010.72 1010.72 1010.72 1010.76 1010.76 1010.72 1010.64 1010.60 1010.44 1010.20 1009.96 1009.72 1009.44 1009.28 1009.04 1008.88 1008.68 1008.52 1008.36 1008.24 1008.16 1008.08 1007.92 1007.76 1007.56 1007.32 1007.04 1006.76 1006.52 1006.28 1006.08 1005.88 1005.60 1005.44 1005.24 1005.04 1004.80 1004.52 1004.32
1013.56 1013.56 1013.48 1013.44 1013.44 1013.44 1013.36 1013.28 1013.20 1013.16 1013.08 1013.00 1012.88 1012.72 1012.60 1012.52 1012.36 1012.24 1012.08 1011.96 1011.80 1011.64 1011.48 1011.32 1011.16 1011.00 1010.88 1010.88 1010.76 1010.72 1010.68 1010.68 1010.64 1010.68 1010.72 1010.64 1010.48 1010.32 1010.16 1009.96 1009.72 1009.40 1009.12 1008.88 1008.68 1008.48 1008.28 1008.16 1008.00 1007.88 1007.84 1007.80 1007.72 1007.56 1007.36 1007.12 1006.88 1006.60 1006.36 1006.16 1006.00 1005.76 1005.56 1005.28 1005.04 1004.88 1004.68 1004.40 1004.12
Wind_Speed
4 4 3 2 2 2 2 2 1 1 1 2 2 3 3 3 4 4 4 5 5 5 6 6 6 7 8 10 11 10 10 10 11 12 12 13 14 14 14 14 14 14 14 14 14 14 13 13 12 10 9 9 10 11 11 11 12 13 14 14 13 14 15 17 17 18 19 20 17
5 5 4 3 2 2 2 2 3 2 2 2 2 2 3 3 4 4 5 5 5 6 6 6 7 8 10 11 10 10 10 10 12 13 13 14 15 15 14 14 14 14 14 14 14 13 12 12 12 11 9 9 10 11 12 11 12 13 15 17 15 13 14 15 16 17 19 19 18
6 5 4 4 4 3 3 2 2 2 2 3 3 3 3 3 4 4 5 5 6 6 6 6 7 8 9 10 9 9 10 11 12 13 13 13 14 14 14 14 14 14 14 14 13 12 12 12 11 10 9 9 11 11 12 12 13 14 15 16 14 12 12 12 14 15 15 14 16
6 5 5 4 4 2 1 1 3 4 4 4 4 4 4 4 4 5 5 6 7 7 6 6 6 7 7 8 9 10 11 12 13 14 14 13 14 14 14 14 14 14 14 13 13 13 14 13 11 10 10 11 13 12 12 11 13 13 13 13 12 12 12 12 12 12 12 13 15
5 4 3 2 0 1 2 2 3 4 4 3 4 4 4 4 5 5 6 6 6 7 7 8 7 7 7 8 11 12 13 13 13 13 13 13 13 14 14 14 14 14 14 13 13 14 14 14 11 10 10 11 11 11 12 13 14 13 12 11 11 11 12 12 12 12 12 12 13
6 5 3 2 0 1 1 2 3 3 3 3 4 5 5 5 5 6 7 7 8 9 10 10 9 8 9 11 12 12 12 12 12 12 12 13 13 13 14 15 15 14 13 13 14 14 14 13 11 10 10 10 11 12 13 15 14 13 13 12 11 11 11 12 12 12 12 13 15
6 6 5 4 2 0 1 2 3 3 3 4 5 6 7 7 7 9 10 9 9 9 9 8 9 9 10 11 12 12 12 12 12 13 13 13 13 14 14 14 14 15 15 14 15 14 14 13 11 10 10 10 10 12 13 14 13 13 13 13 11 11 12 13 12 12 13 16 18
3 2 1 1 1 0 2 2 3 3 4 4 6 7 9 9 10 11 11 10 9 9 8 8 10 11 12 12 12 12 12 13 13 13 13 13 14 15 15 15 15 15 15 15 15 15 14 12 11 10 10 10 10 11 13 15 15 15 15 15 13 12 12 12 12 12 14 17 19
1 1 1 1 2 2 3 3 4 5 5 6 7 9 10 10 11 11 10 9 9 9 9 9 10 12 13 13 13 12 12 12 13 13 13 13 14 15 15 15 15 15 15 15 15 16 15 13 11 11 11 10 10 12 13 16 17 17 16 15 14 14 14 14 14 15 16 18 19
1 1 1 2 3 3 4 4 5 6 7 8 9 10 10 10 10 10 9 8 9 9 10 10 11 12 13 13 13 12 12 12 12 13 13 14 14 15 15 14 15 15 15 15 14 15 15 13 12 12 13 13 14 15 16 17 18 18 17 14 14 16 17 17 17 18 19 18 19
1 1 2 3 3 4 5 5 6 7 7 8 10 10 10 10 10 10 9 9 9 11 11 11 12 12 12 12 12 12 12 11 12 12 13 14 15 15 15 15 16 16 16 16 15 14 13 12 13 15 16 15 16 17 17 18 19 19 19 16 17 18 20 20 19 19 19 19 20
2 2 3 3 4 5 6 6 6 7 8 9 10 10 10 10 10 10 10 10 11 12 12 12 12 12 12 11 11 11 12 12 13 14 14 15 16 16 16 17 17 17 17 17 15 14 13 13 15 17 18 19 16 15 16 18 19 20 20 20 20 20 20 21 21 19 18 18 20
2 3 3 4 5 6 6 7 7 8 9 10 10 9 9 9 10 10 11 11 11 11 11 11 12 12 11 11 11 11 12 13 14 14 14 15 16 16 17 17 17 18 18 17 15 14 14 15 17 19 19 20 17 16 17 19 20 20 20 21 21 21 21 22 21 21 20 20 20
3 3 4 5 6 7 7 8 8 8 9 9 9 9 8 9 9 10 10 11 11 11 11 11 11 11 11 12 12 13 13 14 14 15 16 16 16 17 17 17 18 18 17 16 16 16 17 17 18 19 20 21 20 19 19 20 20 20 20 21 21 22 22 22 22 22 22 22 22
3 4 5 6 7 7 8 8 8 8 8 9 8 8 8 8 9 9 10 10 11 11 10 10 10 10 11 12 13 14 14 15 15 16 17 17 17 17 18 18 18 18 18 17 17 17 18 19 20 20 20 21 21 21 21 20 20 20 20 21 21 22 22 22 22 22 21 22 22
5 6 7 7 8 8 8 8 7 7 7 8 8 8 8 8 8 9 10 10 10 10 10 11 11 11 11 12 13 14 14 15 16 16 17 17 17 18 18 18 18 18 18 19 18 18 18 18 18 19 20 20 21 21 21 21 21 21 21 22 22 22 22 22 22 22 22 22 22
6 6 7 7 8 8 8 8 7 7 7 8 8 9 9 8 8 9 9 10 10 10 11 12 11 11 11 12 12 13 14 14 15 15 16 16 17 18 18 18 19 19 19 19 19 19 19 19 18 18 19 20 20 20 21 21 21 21 21 22 22 22 22 22 21 21 21 22 22
5 6 7 7 8 8 8 8 8 8 8 9 9 9 9 9 9 9 10 10 11 11 12 13 12 12 12 13 13 12 13 14 15 15 16 17 18 18 18 19 19 19 19 19 19 19 20 20 19 19 18 19 19 19 20 20 20 20 21 21 21 21 21 20 20 20 19 20 21
5 6 7 7 8 8 8 8 8 9 9 9 9 10 10 11 11 11 11 11 12 12 13 13 13 13 13 14 14 13 13 14 15 17 17 18 18 18 19 19 19 19 19 19 19 19 19 19 19 19 19 18 19 19 19 19 19 19 19 19 19 19 19 19 19 19 18 19 19
6 6 7 7 8 8 8 8 9 9 9 9 10 11 11 12 12 12 12 12 12 12 13 13 14 14 14 15 15 15 14 14 15 17 17 18 18 18 19 19 19 19 19 19 19 19 19 19 19 19 19 19 19 18 18 18 18 18 18 18 18 18 19 19 19 19 19 20 20
6 7 7 7 8 8 8 8 9 9 10 10 11 12 12 12 12 13 13 13 13 13 13 14 14 15 15 15 16 16 15 14 15 16 17 17 18 18 18 18 18 18 18 18 18 19 19 19 19 18 18 17 17 17 17 17 17 18 18 17 17 18 19 20 20 20 20 21 21
7 7 7 7 8 8 8 8 9 9 10 11 11 12 12 12 13 13 13 12 12 13 13 14 14 15 15 16 16 16 15 14 15 16 16 16 17 17 17 17 17 18 18 18 18 18 18 18 18 17 16 15 16 16 16 16 17 17 18 18 18 19 19 19 19 20 20 20 21
7 7 7 7 7 8 8 8 9 10 10 11 12 12 12 13 13 13 13 12 12 13 13 13 14 14 15 16 16 16 16 16 16 17 17 17 17 17 17 17 17 18 18 17 17 17 16 16 15 15 14 14 14 15 15 16 16 16 16 17 18 18 18 18 19 19 19 19 19
8 7 7 6 7 8 8 9 9 10 11 11 12 12 13 13 13 13 12 13 13 13 13 12 13 14 15 16 16 17 17 18 18 18 18 18 18 17 17 16 16 16 16 14 14 14 13 12 12 12 12 13 13 14 14 15 15 16 16 17 17 18 18 18 18 18 19 19 19
8 7 7 7 7 8 8 9 10 10 11 11 12 12 13 13 13 12 12 13 13 13 14 14 14 14 15 15 16 16 17 18 18 18 18 18 18 17 16 15 15 14 13 13 14 14 13 11 10 10 11 12 13 14 14 15 16 16 16 17 17 17 18 18 19 19 19 20 19
7 7 7 7 8 8 9 9 10 11 11 12 12 12 13 13 12 13 13 13 14 14 14 15 14 14 14 14 15 16 16 16 16 17 17 17 17 17 16 15 13 12 12 13 13 13 11 11 11 11 11 12 13 13 14 14 15 16 17 18 17 17 18 18 18 19 19 19 19
7 7 7 7 8 9 9 10 10 11 11 12 12 13 13 13 12 13 14 14 14 15 15 14 14 13 13 14 15 16 16 15 15 16 17 17 17 17 17 15 14 12 12 13 13 12 11 11 13 14 14 13 14 14 14 13 15 16 17 17 17 18 18 19 19 19 19 18 19
7 7 7 8 8 9 9 10 10 11 12 12 12 12 13 13 13 14 14 15 15 15 14 13 13 12 11 11 13 14 15 15 15 15 16 16 17 17 17 15 14 13 13 13 13 12 13 14 16 17 17 16 14 14 14 15 15 15 16 16 16 17 18 18 18 17 18 18 18
7 7 7 8 9 9 9 10 11 11 12 12 12 13 13 13 14 14 15 15 15 15 14 12 11 10 11 12 13 15 16 16 15 15 15 16 17 17 17 16 16 15 14 14 14 14 16 17 19 19 20 19 15 13 12 13 13 13 14 13 14 15 16 16 15 15 16 17 17
7 7 8 8 9 9 10 10 11 11 11 11 12 13 13 13 14 15 15 15 15 15 14 12 12 13 14 15 15 15 15 16 15 15 15 16 16 16 16 17 16 15 15 15 16 17 18 20 20 21 21 21 17 14 13 13 13 13 13 13 14 16 17 17 17 17 17 16 17
7 7 8 8 9 9 10 10 11 11 11 11 12 13 13 14 14 15 15 15 15 15 15 15 16 17 17 17 16 16 16 16 15 15 15 15 16 17 17 18 17 16 16 16 17 19 20 21 22 22 22 22 18 15 13 13 14 14 14 14 15 17 17 17 17 18 18 19 18
7 7 8 8 9 9 10 11 11 11 12 13 13 13 14 14 15 15 15 15 15 16 16 17 17 18 18 18 17 17 17 16 16 15 15 15 16 17 18 17 17 16 16 17 18 20 21 22 22 22 23 22 19 17 15 15 15 15 15 17 18 19 19 17 17 18 19 20 20
7 7 8 8 9 10 10 11 11 12 12 13 13 14 14 15 15 15 15 15 15 16 16 17 17 17 17 17 17 17 17 16 16 16 16 16 17 18 18 17 15 15 16 18 19 21 22 22 23 23 23 23 19 17 16 16 14 14 14 16 17 18 19 20 19 19 20 20 20
6 7 8 8 9 10 10 11 11 12 12 13 13 14 14 15 15 15 15 15 14 15 15 16 16 16 16 16 17 17 16 14 15 15 16 17 17 18 17 15 13 14 16 19 21 22 22 23 23 24 24 23 18 16 15 16 15 14 15 16 17 17 18 19 20 20 20 21 20
6 7 7 8 9 10 11 11 11 12 12 13 13 14 15 15 16 16 15 15 15 15 15 15 15 16 16 16 16 16 16 15 15 15 16 16 17 17 17 16 15 16 19 21 22 22 23 23 23 24 23 21 16 14 14 16 15 16 16 17 17 18 19 19 19 19 20 20 20
6 6 7 8 9 10 11 11 12 12 13 13 13 14 15 15 15 15 15 15 15 15 16 16 16 16 16 16 15 15 15 15 15 15 15 16 16 16 17 17 17 19 20 22 22 23 23 23 24 24 23 19 14 12 13 13 13 14 16 17 17 18 19 19 18 18 19 19 19
6 7 8 9 10 11 11 12 12 13 13 13 14 14 15 15 15 15 15 14 15 15 16 16 16 16 16 16 15 15 15 15 16 16 16 15 15 16 17 17 18 19 20 21 22 23 23 24 24 23 21 17 14 12 12 12 12 13 15 16 17 17 18 17 17 17 18 18 18
7 8 9 10 11 11 12 12 12 13 14 14 14 15 15 15 14 14 14 13 14 15 16 16 16 16 16 16 16 16 16 16 16 16 16 15 15 16 17 18 19 19 19 21 22 23 24 24 24 23 21 16 14 13 12 11 12 12 13 14 14 15 15 14 13 13 15 17 18
8 9 10 10 11 11 12 12 13 13 14 14 14 15 15 15 14 13 13 13 14 15 15 16 16 16 16 16 15 15 15 16 16 15 15 15 15 16 17 18 18 19 19 21 22 23 24 24 24 23 21 17 14 12 11 10 11 12 13 12 12 13 13 12 11 11 13 15 17
8 9 10 10 11 11 12 13 13 13 13 14 14 15 15 15 14 14 13 13 14 14 15 15 16 16 16 15 15 15 15 15 15 15 15 15 16 17 18 18 18 19 20 21 22 23 23 23 23 22 20 16 13 11 10 9 10 11 11 11 10 11 11 11 11 11 12 14 15
8 9 10 10 11 11 12 13 13 13 13 14 14 14 14 14 14 14 13 13 14 14 14 14 15 16 16 15 14 14 14 15 16 16 16 16 16 17 17 17 17 18 19 20 21 22 22 22 22 22 20 15 12 10 9 8 9 10 11 12 11 11 11 11 11 11 12 13 13
Wind_Direction
144 145 144 144 149 167 176 150 130 147 249 266 284 300 313 321 318 313 307 301 296 294 293 292 292 292 293 294 294 295 296 299 301 301 300 298 296 294 293 292 291 290 289 289 289 289 288 288 287 286 283 282 280 279 278 276 276 276 274 273 272 272 271 270 270 269 269 269 269
140 135 127 121 144 173 184 171 173 191 220 258 294 320 330 331 322 312 304 298 295 294 294 293 293 294 295 296 297 298 298 299 299 298 296 294 293 292 291 290 289 289 289 289 289 289 288 288 287 286 284 282 281 280 278 276 276 275 273 272 271 270 269 268 267 267 267 267 267
136 136 142 157 179 192 201 204 226 261 289 311 329 337 335 326 314 305 299 294 293 292 292 291 294 296 298 299 298 297 296 295 294 293 292 291 291 290 290 289 289 289 289 289 289 288 288 288 287 285 282 281 279 278 277 276 275 274 273 272 271 269 268 267 266 266 265 264 263
140 148 163 180 194 213 267 330 334 335 337 340 340 335 326 315 305 298 292 289 288 287 286 288 291 296 298 296 292 289 288 287 288 288 289 289 290 290 291 291 290 290 289 289 289 288 287 287 285 283 280 279 278 277 276 275 274 273 272 271 270 269 268 268 267 266 265 264 263
145 153 166 183 229 359 1 354 343 340 339 338 328 318 308 300 294 289 287 285 284 285 287 291 293 294 293 289 286 284 284 284 285 286 288 289 290 290 291 290 290 289 289 289 288 287 286 285 283 280 278 278 277 275 275 275 274 273 272 271 269 269 268 268 267 266 266 265 264
152 154 154 146 108 9 352 343 340 337 333 324 310 302 296 293 293 293 294 293 292 293 293 295 295 292 288 285 283 283 283 284 285 286 287 288 288 288 287 287 287 287 286 285 284 283 282 281 279 276 275 274 273 273 273 274 273 272 271 270 269 268 268 267 267 266 265 265 264
162 164 164 160 159 167 329 338 339 330 318 305 297 294 293 294 295 294 294 292 292 291 291 291 288 285 284 283 283 284 285 286 285 286 286 285 285 285 285 284 284 283 282 282 281 280 279 277 275 274 273 273 272 271 271 270 270 269 269 269 268 268 268 268 268 267 267 266 266
156 159 161 153 157 317 325 330 321 311 303 296 295 296 296 296 294 291 288 285 284 283 283 282 282 282 283 284 285 286 286 286 285 285 284 283 283 283 283 283 282 282 281 281 280 279 277 276 274 273 272 271 270 269 269 268 268 268 268 268 268 267 267 268 268 267 267 267 266
90 57 19 352 335 328 323 320 311 305 300 298 298 298 296 293 289 285 282 280 279 279 280 279 280 281 283 284 285 285 285 284 283 282 282 281 282 282 281 281 280 280 279 278 277 277 276 275 273 271 270 269 269 269 269 269 268 268 267 266 266 265 265 265 265 265 265 266 265
77 39 359 335 326 320 315 311 304 301 299 298 296 293 289 284 280 276 274 274 275 276 277 278 281 282 283 284 284 283 282 281 280 280 279 278 278 277 277 276 275 275 275 274 274 274 274 273 272 271 270 270 270 270 270 270 269 268 267 265 265 264 264 263 263 263 264 263 263
53 1 336 324 316 311 306 303 300 298 297 294 290 285 281 276 273 271 272 273 275 278 279 282 284 285 285 284 283 282 280 279 278 277 276 275 274 274 273 273 273 273 273 273 273 273 272 271 271 270 270 269 270 270 270 269 269 268 267 265 265 264 264 263 262 262 262 262 262
12 340 323 312 304 300 298 296 295 293 289 285 281 278 276 274 274 276 278 281 282 284 285 287 288 287 286 284 282 280 279 277 276 275 275 275 275 275 275 275 275 275 275 275 274 273 272 270 270 269 269 268 268 268 268 268 268 267 266 265 265 264 263 263 262 261 261 261 261
337 319 307 298 294 292 290 288 285 281 277 274 273 273 274 276 280 282 285 287 287 288 289 290 289 288 286 284 282 281 280 279 279 279 279 279 279 279 279 279 279 278 278 277 276 274 272 271 270 269 269 268 267 266 266 266 266 266 266 265 264 264 263 263 262 262 262 261 261
299 295 292 287 285 282 278 274 270 267 267 267 270 273 277 281 285 287 288 289 289 289 289 290 288 287 286 286 286 285 285 285 284 284 283 283 283 282 281 280 280 279 278 276 274 272 271 270 269 269 269 269 268 267 266 266 266 265 265 265 264 264 264 263 263 263 263 262 262
266 269 269 267 265 262 261 259 260 262 265 269 274 279 283 286 288 289 289 289 289 289 289 288 287 286 286 287 287 287 286 285 285 284 283 282 281 281 280 279 279 278 277 276 274 272 271 271 270 270 270 270 270 269 268 267 267 266 266 265 265 265 265 265 264 264 264 264 264
240 245 247 249 249 250 252 255 259 265 270 276 282 286 288 289 289 289 289 288 288 287 287 286 287 287 287 286 286 285 285 284 283 282 281 281 280 280 279 279 279 278 278 277 276 274 273 272 272 272 271 272 271 271 271 270 269 269 268 267 267 267 267 266 266 265 265 265 264
235 240 244 247 250 253 257 262 267 272 278 283 287 289 290 290 290 289 288 287 287 287 286 287 287 287 287 286 286 285 284 283 282 281 281 280 280 280 280 280 280 279 279 278 278 277 275 274 273 272 272 272 272 272 272 272 271 271 270 270 270 269 269 269 269 268 268 267 267
246 251 254 257 260 264 267 271 275 280 284 288 290 291 291 290 289 288 287 286 286 286 286 286 286 286 286 286 285 284 283 282 281 281 280 280 280 280 280 280 280 279 279 279 278 277 277 276 276 275 275 274 274 274 273 273 273 273 273 274 274 273 273 273 273 273 272 271 270
262 264 265 267 270 273 276 279 283 286 289 291 292 291 290 289 289 287 286 285 284 285 285 285 285 285 284 284 284 283 282 281 281 280 280 280 280 280 280 280 280 280 279 279 279 279 278 278 277 277 276 275 275 275 276 277 277 278 279 279 280 279 279 278 278 277 276 275 274
270 272 273 275 278 281 283 286 288 290 292 292 291 291 289 289 287 286 285 285 285 286 285 285 285 284 284 283 283 282 281 280 280 280 280 280 280 280 280 280 280 280 280 280 279 279 278 277 277 276 277 277 279 281 282 283 284 285 285 284 283 282 281 280 279 278 277 276 275
273 275 277 280 282 284 286 288 290 291 291 291 290 289 288 287 286 286 286 286 287 286 285 284 283 283 283 283 283 283 282 282 282 281 281 281 281 280 280 281 281 280 279 278 277 276 276 277 277 279 281 282 284 285 286 287 286 285 284 283 282 280 280 279 278 276 275 274 273
277 278 279 280 281 282 284 287 289 289 290 289 289 288 288 287 287 287 288 288 287 286 285 284 284 284 284 285 285 285 284 283 282 282 281 281 280 280 279 279 278 277 277 276 276 276 277 278 280 281 283 284 284 285 285 284 283 282 280 278 277 276 275 274 273 273 272 271 271
276 276 276 277 278 280 283 286 288 289 289 288 288 288 288 288 289 289 290 289 288 287 286 285 285 285 285 285 285 284 284 283 282 280 279 278 278 278 278 277 277 277 277 277 277 279 280 280 281 282 282 283 283 283 282 281 280 278 277 276 274 273 272 271 270 269 268 268 267
269 269 270 272 277 281 284 287 288 289 289 289 289 289 289 290 291 292 291 290 289 288 287 286 285 285 284 284 283 283 282 281 280 280 278 278 277 277 278 278 278 278 278 278 279 280 281 282 283 283 283 283 282 281 280 278 277 276 275 274 273 272 271 270 269 268 267 267 266
264 265 268 272 278 283 286 288 289 289 290 290 291 291 292 293 293 294 293 292 290 289 288 287 286 285 284 283 282 281 280 279 279 278 278 278 278 278 279 279 279 279 280 280 279 280 281 281 282 283 283 283 281 280 278 276 274 273 272 272 272 271 270 269 268 267 266 266 265
262 266 270 276 281 285 287 289 290 290 291 292 292 293 294 295 296 296 296 295 293 292 290 289 287 285 283 282 280 279 278 277 277 277 278 279 279 280 280 280 280 281 280 280 279 279 280 280 279 279 279 279 279 277 275 273 272 271 270 270 270 269 269 268 267 266 265 264 263
265 270 276 281 285 288 289 291 291 292 293 294 295 296 297 299 299 299 298 296 294 293 291 289 286 283 280 278 277 276 276 276 277 278 279 280 281 281 281 280 280 280 280 280 281 282 283 283 281 279 277 277 276 275 274 273 272 271 271 270 269 268 268 267 268 267 267 265 264
269 276 282 286 287 289 291 292 293 294 295 297 298 300 300 301 300 298 296 295 294 292 290 288 285 282 280 278 278 279 279 280 281 281 281 281 281 281 281 281 281 282 283 285 288 291 291 290 287 284 281 279 277 276 275 274 274 273 272 271 269 268 267 266 267 267 267 266 265
275 280 284 287 289 291 293 294 295 297 299 300 301 301 301 300 298 297 295 294 292 291 289 288 287 285 284 285 285 285 285 284 283 282 282 281 281 282 283 284 286 287 289 293 297 298 297 294 291 287 284 281 279 276 275 274 273 273 272 270 269 268 267 266 266 265 265 266 265
277 281 284 287 290 293 295 296 298 300 301 302 302 301 299 298 297 296 294 293 291 291 290 291 290 289 289 288 288 287 286 285 284 283 284 284 285 286 288 289 291 293 296 300 301 300 297 294 290 287 285 282 280 277 275 273 272 271 270 269 268 268 268 268 268 268 267 266 265
274 279 284 288 292 294 296 298 300 301 302 302 301 300 299 297 296 295 294 293 293 293 293 292 291 290 290 289 288 288 287 287 288 289 289 291 291 292 293 294 295 296 298 301 300 298 294 291 289 286 284 282 280 277 273 272 271 270 269 269 268 269 269 269 269 268 267 266 265
270 278 285 289 292 295 297 300 302 302 302 301 300 299 298 296 295 295 295 296 295 295 294 293 292 291 290 290 290 290 291 292 293 294 294 295 295 295 296 297 298 298 298 299 297 294 292 289 287 285 284 282 279 276 274 272 271 270 269 269 269 269 268 268 267 266 265 264 263
271 279 285 289 293 296 299 301 302 302 301 300 299 298 297 296 296 296 296 295 294 293 293 292 292 292 292 293 293 293 293 294 295 296 296 296 297 298 298 299 298 298 297 296 294 291 289 288 286 285 284 282 280 278 275 273 271 270 268 268 267 267 266 266 265 264 263 262 261
269 277 283 290 295 297 300 300 301 301 300 299 298 297 296 296 296 295 294 293 292 292 292 293 293 293 294 294 294 295 295 296 297 297 297 298 299 300 300 300 298 296 294 293 291 290 289 288 287 286 285 284 282 279 277 275 272 270 269 268 268 267 266 265 263 263 262 261 260
273 283 291 296 298 299 300 300 300 299 298 297 297 296 296 295 294 293 293 293 293 293 294 294 294 294 294 294 294 295 296 297 298 298 299 300 301 300 299 297 295 293 292 291 291 290 289 289 288 287 287 286 283 280 277 276 274 272 270 270 269 268 267 266 265 263 262 261 259
294 300 302 301 300 300 300 300 300 299 298 297 296 294 293 293 292 293 294 295 295 296 296 296 296 295 295 296 296 297 298 299 299 300 300 301 301 300 298 296 294 293 293 292 292 291 291 290 289 288 287 286 283 279 277 276 274 273 272 272 271 270 269 268 267 266 265 263 261
307 308 306 303 302 302 302 301 300 298 297 295 294 293 292 293 294 295 297 298 298 298 297 297 297 297 297 298 298 299 300 300 301 301 301 302 302 300 299 297 295 294 293 293 292 292 290 289 288 287 287 285 283 280 279 277 275 274 274 273 272 272 271 270 269 268 267 265 263
311 310 308 306 304 303 302 300 298 297 295 295 294 295 295 296 297 298 299 300 300 299 298 297 297 297 298 300 300 300 301 301 302 302 303 303 302 300 298 296 295 294 293 293 292 290 289 287 287 286 285 284 283 282 280 277 275 274 274 274 273 273 273 273 272 271 269 267 265
312 310 309 307 304 302 300 298 296 295 295 295 296 297 298 299 299 300 300 300 299 298 297 297 298 298 299 301 301 301 302 302 302 303 304 304 302 299 297 295 293 293 292 291 289 288 287 286 285 285 285 284 283 282 280 277 275 275 276 276 278 280 281 282 281 279 276 273 269
309 308 306 304 302 299 298 296 296 296 296 297 298 298 299 300 299 300 300 298 298 297 297 297 298 299 300 302 302 302 303 304 305 305 304 303 300 297 295 292 291 290 290 289 287 286 285 285 285 286 286 286 285 284 281 279 280 282 284 287 290 292 292 292 290 287 284 281 276
306 305 304 302 300 298 297 296 297 297 298 298 299 299 300 300 299 299 299 298 299 299 299 299 299 300 301 302 303 304 305 306 306 305 304 301 298 295 293 290 289 289 289 288 288 287 286 286 286 288 288 288 288 287 286 287 291 295 298 300 300 299 297 295 293 290 287 285 283